FW5442 Weather Reports


Display with metric or nautical units.
time (UTC)temp
F
wind
direction
speed
MPH
gust
MPH
rain 1hr
in
rain 24hr
in
rain mn
in
humidity
%
barometer
mb
20260509222554 78 180 7.0 15.0 0.00 0.00 0.00 64 1009.5
20260509222051 78 166 4.0 15.0 0.00 0.00 0.00 65 1009.5
20260509221554 78 217 7.0 16.0 0.00 0.00 0.00 64 1009.6
20260509221054 78 165 8.0 16.0 0.00 0.00 0.00 64 1009.4
20260509220551 78 137 11.0 15.0 0.00 0.00 0.00 63 1009.4
20260509215551 79 186 7.0 13.0 0.00 0.00 0.00 62 1009.5
20260509215052 80 174 8.0 13.0 0.00 0.00 0.00 61 1009.4
20260509214554 81 195 8.0 13.0 0.00 0.00 0.00 59 1009.2
20260509214051 81 159 5.0 13.0 0.00 0.00 0.00 59 1009.2
20260509213555 80 168 5.0 13.0 0.00 0.00 0.00 60 1009.4
20260509213057 81 189 9.0 12.0 0.00 0.00 0.00 59 1009.3
20260509212551 81 205 3.0 12.0 0.00 0.00 0.00 59 1009.2
20260509212054 81 219 8.0 12.0 0.00 0.00 0.00 58 1009.3
20260509211556 81 0 0.0 9.0 0.00 0.00 0.00 58 1009.4
20260509211057 82 262 5.0 9.0 0.00 0.00 0.00 57 1009.4
20260509210552 83 0 3.0 9.0 0.00 0.00 0.00 54 1009.4
20260509210052 83 0 0.0 8.0 0.00 0.00 0.00 55 1009.5
20260509205551 81 0 0.0 8.0 0.00 0.00 0.00 57 1009.6
20260509205054 81 213 1.0 7.0 0.00 0.00 0.00 59 1009.6
20260509204553 81 0 0.0 7.0 0.00 0.00 0.00 57 1009.5
20260509204052 81 0 2.0 7.0 0.00 0.00 0.00 56 1009.6
20260509203552 81 0 0.0 7.0 0.00 0.00 0.00 57 1009.6
20260509203119 82 0 0.0 7.0 0.00 0.00 0.00 54 1009.6
20260509202551 82 0 1.0 7.0 0.00 0.00 0.00 54 1009.7
20260509202055 82 0 0.0 0.0 0.00 0.00 0.00 55 1009.8
20260509201604 81 0 0.0 0.0 0.00 0.00 0.00 57 1009.9
20260509201054 80 0 0.0 11.0 0.00 0.00 0.00 59 1010.0
20260509200553 80 0 0.0 11.0 0.00 0.00 0.00 59 1009.9
20260509200100 80 162 1.0 11.0 0.00 0.00 0.00 59 1010.0
20260509195553 79 0 0.0 7.0 0.00 0.00 0.00 61 1010.0
20260509195053 79 0 0.0 6.0 0.00 0.00 0.00 61 1010.1
20260509194554 79 195 0.0 11.0 0.00 0.00 0.00 61 1010.0
20260509194053 80 0 4.0 11.0 0.00 0.00 0.00 60 1010.2
20260509193553 80 0 2.0 9.0 0.00 0.00 0.00 60 1010.1
20260509193117 80 193 3.0 10.0 0.00 0.00 0.00 60 1010.1
20260509192552 80 0 1.0 12.0 0.00 0.00 0.00 61 1010.2
20260509192052 80 165 1.0 12.0 0.00 0.00 0.00 61 1010.3
20260509191612 79 172 3.0 13.0 0.00 0.00 0.00 60 1010.3
20260509191057 79 0 1.0 13.0 0.00 0.00 0.00 60 1010.3
20260509190554 80 168 0.0 0.0 0.00 0.00 0.00 59 1010.3
20260509190053 80 0 0.0 6.0 0.00 0.00 0.00 57 1010.3
20260509185553 80 0 0.0 6.0 0.00 0.00 0.00 58 1010.3
20260509185053 79 0 0.0 9.0 0.00 0.00 0.00 59 1010.4
20260509184558 79 0 0.0 9.0 0.00 0.00 0.00 59 1010.3
20260509184052 78 0 2.0 9.0 0.00 0.00 0.00 60 1010.5
20260509183555 79 135 1.0 10.0 0.00 0.00 0.00 59 1010.6
20260509183054 79 0 0.0 10.0 0.00 0.00 0.00 59 1010.7
20260509182553 80 119 0.0 0.0 0.00 0.00 0.00 58 1010.8
20260509182054 79 0 0.0 0.0 0.00 0.00 0.00 60 1010.7
20260509181600 79 0 0.0 1.0 0.00 0.00 0.00 59 1010.7
20260509181053 79 0 0.0 9.0 0.00 0.00 0.00 60 1010.8
20260509180554 78 0 0.0 9.0 0.00 0.00 0.00 61 1010.8
20260509180104 78 0 2.0 9.0 0.00 0.00 0.00 61 1010.8
20260509175553 80 140 2.0 8.0 0.00 0.00 0.00 59 1011.0
20260509175053 79 0 1.0 7.0 0.00 0.00 0.00 61 1011.0
20260509174556 78 0 2.0 9.0 0.00 0.00 0.00 62 1010.9
20260509174057 77 141 5.0 9.0 0.00 0.00 0.00 63 1011.1
20260509173552 77 121 4.0 9.0 0.00 0.00 0.00 64 1011.2
20260509173101 77 115 2.0 5.0 0.00 0.00 0.00 64 1011.2
20260509172553 77 232 0.0 4.0 0.00 0.00 0.00 66 1011.1
20260509172053 77 240 0.0 7.0 0.00 0.00 0.00 64 1011.2
20260509171555 78 223 0.0 7.0 0.00 0.00 0.00 64 1011.3
20260509171052 77 0 2.0 7.0 0.00 0.00 0.00 66 1011.5
20260509170552 77 128 0.0 5.0 0.00 0.00 0.00 65 1011.4
20260509170059 76 44 0.0 5.0 0.00 0.00 0.00 67 1011.4
20260509165552 76 310 0.0 4.0 0.00 0.00 0.00 67 1011.4
20260509165052 75 0 0.0 4.0 0.00 0.00 0.00 68 1011.4
20260509164607 75 269 0.0 5.0 0.00 0.00 0.00 69 1011.5
20260509164053 74 0 0.0 7.0 0.00 0.00 0.00 70 1011.4
20260509163555 74 300 2.0 7.0 0.00 0.00 0.00 70 1011.4
20260509163105 74 41 4.0 7.0 0.00 0.00 0.00 71 1011.3
20260509162552 75 20 3.0 6.0 0.00 0.00 0.00 72 1011.3
20260509162054 75 0 0.0 5.0 0.00 0.00 0.00 73 1011.4
20260509161602 74 29 1.0 6.0 0.00 0.00 0.00 74 1011.4
20260509161052 73 18 3.0 7.0 0.00 0.00 0.00 76 1011.4
20260509160553 73 7 3.0 7.0 0.00 0.00 0.00 76 1011.2
20260509160100 73 286 5.0 7.0 0.00 0.00 0.00 74 1011.3
20260509155554 73 0 1.0 6.0 0.00 0.00 0.00 76 1011.4
20260509155052 74 0 0.0 1.0 0.00 0.00 0.00 75 1011.1
20260509154602 73 26 0.0 3.0 0.00 0.00 0.00 77 1011.1
20260509154052 71 0 0.0 7.0 0.00 0.00 0.00 80 1011.2
20260509153552 71 307 4.0 7.0 0.00 0.00 0.00 79 1011.2
20260509153105 72 328 1.0 4.0 0.00 0.00 0.00 80 1011.1
20260509152552 71 0 1.0 5.0 0.00 0.00 0.00 81 1011.2
20260509152052 71 0 1.0 6.0 0.00 0.00 0.00 82 1011.0
20260509151609 70 0 0.0 7.0 0.00 0.00 0.00 82 1010.9
20260509151052 69 0 3.0 7.0 0.00 0.00 0.00 82 1011.0
20260509150553 69 0 1.0 8.0 0.00 0.00 0.00 82 1010.9
20260509150056 69 360 4.0 8.0 0.00 0.00 0.00 81 1010.9
20260509145553 68 319 6.0 8.0 0.00 0.00 0.00 81 1010.8
20260509145053 68 328 2.0 7.0 0.00 0.00 0.00 80 1010.8
20260509144605 68 257 4.0 7.0 0.00 0.00 0.00 80 1010.9
20260509144052 68 0 0.0 10.0 0.00 0.00 0.00 75 1010.9
20260509143555 67 278 4.0 10.0 0.00 0.00 0.00 76 1011.0
20260509143054 67 0 2.0 8.0 0.00 0.00 0.00 76 1011.0
20260509142552 67 319 3.0 7.0 0.00 0.00 0.00 73 1011.2
20260509142052 67 337 4.0 7.0 0.00 0.00 0.00 73 1011.2
20260509141552 67 0 3.0 7.0 0.00 0.00 0.00 69 1011.2
20260509141052 66 281 4.0 7.0 0.00 0.00 0.00 65 1011.2
20260509140551 66 300 2.0 7.0 0.00 0.00 0.00 60 1011.2
20260509140059 66 298 3.0 7.0 0.00 0.00 0.00 58 1011.0
20260509135553 66 292 4.0 11.0 0.00 0.00 0.00 58 1010.9
20260509135053 66 0 5.0 11.0 0.00 0.00 0.00 52 1010.8
20260509134556 65 300 4.0 8.0 0.00 0.00 0.00 51 1010.9
20260509134052 65 260 3.0 8.0 0.00 0.00 0.00 43 1010.9
20260509133552 65 311 5.0 7.0 0.00 0.00 0.00 42 1011.0
20260509133059 65 307 4.0 8.0 0.00 0.00 0.00 39 1011.0
20260509132554 65 325 5.0 8.0 0.00 0.00 0.00 37 1011.0
20260509132053 65 325 4.0 6.0 0.00 0.00 0.00 32 1011.1
20260509131552 65 262 4.0 6.0 0.00 0.00 0.00 29 1011.1
20260509131052 65 281 4.0 6.0 0.00 0.00 0.00 28 1011.1
20260509130552 65 269 0.0 4.0 0.00 0.00 0.00 28 1011.1
20260509130101 64 0 0.0 4.0 0.00 0.00 0.00 28 1010.9
20260509125553 64 0 1.0 4.0 0.00 0.00 0.00 28 1011.1
20260509125052 64 0 0.0 4.0 0.00 0.00 0.00 28 1011.1
20260509124553 64 268 1.0 3.0 0.00 0.00 0.00 28 1011.1
20260509124053 64 0 0.0 0.0 0.00 0.00 0.00 28 1011.0
20260509123553 64 0 0.0 0.0 0.00 0.00 0.00 28 1010.9
20260509123056 64 0 0.0 0.0 0.00 0.00 0.00 28 1011.0
20260509122553 64 0 0.0 0.0 0.00 0.00 0.00 28 1011.0
20260509122052 64 0 0.0 0.0 0.00 0.00 0.00 29 1011.2
20260509121553 64 0 0.0 0.0 0.00 0.00 0.00 29 1011.1
20260509121053 64 0 0.0 0.0 0.00 0.00 0.00 29 1011.0
20260509120553 63 0 0.0 0.0 0.00 0.00 0.00 30 1010.8
20260509120059 63 0 0.0 0.0 0.00 0.00 0.00 30 1010.7
20260509115553 63 0 0.0 0.0 0.00 0.00 0.00 30 1010.7
20260509115050 63 0 0.0 0.0 0.00 0.00 0.00 30 1010.6
20260509114554 63 0 0.0 0.0 0.00 0.00 0.00 31 1010.6
20260509114052 63 0 0.0 0.0 0.00 0.00 0.00 31 1010.6
20260509113551 63 0 0.0 0.0 0.00 0.00 0.00 32 1010.6
20260509113052 63 0 0.0 0.0 0.00 0.00 0.00 32 1010.7
20260509112553 63 0 0.0 0.0 0.00 0.00 0.00 32 1010.5
20260509112053 63 0 0.0 0.0 0.00 0.00 0.00 33 1010.4
20260509111551 63 0 0.0 0.0 0.00 0.00 0.00 33 1010.5
20260509111052 62 0 0.0 3.0 0.00 0.00 0.00 34 1010.2
20260509110553 62 0 0.0 3.0 0.00 0.00 0.00 34 1010.2
20260509110053 62 157 2.0 3.0 0.00 0.00 0.00 35 1010.1
20260509105553 62 150 0.0 2.0 0.00 0.00 0.00 36 1009.9
20260509105053 62 156 0.0 1.0 0.00 0.00 0.00 37 1009.7
20260509104553 62 0 0.0 0.0 0.00 0.00 0.00 38 1009.3
20260509104054 62 0 0.0 4.0 0.00 0.00 0.00 39 1009.3
20260509103552 61 0 1.0 4.0 0.00 0.00 0.00 39 1009.1
20260509103053 61 222 2.0 3.0 0.00 0.00 0.00 40 1009.2
20260509102552 61 200 0.0 3.0 0.00 0.00 0.00 41 1009.0
20260509102054 61 0 0.0 0.0 0.00 0.00 0.00 41 1009.1
20260509101553 61 0 0.0 3.0 0.00 0.00 0.00 44 1009.3
20260509101052 60 0 0.0 3.0 0.00 0.00 0.00 45 1009.4
20260509100553 60 248 1.0 3.0 0.00 0.00 0.00 46 1009.6
20260509100051 60 0 0.0 3.0 0.00 0.00 0.00 47 1009.6
20260509095553 60 0 0.0 3.0 0.00 0.00 0.00 52 1009.3
20260509095053 60 214 3.0 3.0 0.00 0.00 0.00 52 1009.3
20260509094553 61 213 0.0 3.0 0.00 0.00 0.00 52 1009.2
20260509094053 61 0 2.0 3.0 0.00 0.00 0.00 52 1009.0
20260509093556 61 202 2.0 3.0 0.00 0.00 0.00 54 1008.8
20260509093055 61 198 2.0 3.0 0.00 0.00 0.00 52 1008.7
20260509092552 61 181 1.0 3.0 0.00 0.00 0.00 53 1008.6
20260509092056 61 0 0.0 0.0 0.00 0.00 0.00 54 1008.5
20260509091606 61 0 0.0 0.0 0.00 0.00 0.00 54 1008.5
20260509091055 61 0 0.0 3.0 0.00 0.00 0.00 54 1008.6
20260509090556 61 0 1.0 3.0 0.00 0.00 0.00 56 1008.7
20260509090056 61 155 0.0 3.0 0.00 0.00 0.00 57 1008.8
20260509085556 61 0 0.0 5.0 0.00 0.00 0.00 58 1008.9
20260509085057 61 0 3.0 5.0 0.00 0.00 0.00 57 1008.8
20260509084553 61 188 2.0 4.0 0.00 0.00 0.00 57 1008.8
20260509084056 61 172 2.0 4.0 0.00 0.00 0.00 60 1008.8
20260509083556 61 161 3.0 4.0 0.00 0.00 0.00 61 1008.9
20260509083054 61 175 3.0 4.0 0.00 0.00 0.00 62 1009.0
20260509082555 61 169 2.0 6.0 0.00 0.00 0.00 63 1008.9
20260509082058 61 160 3.0 7.0 0.00 0.00 0.00 63 1008.7
20260509081555 60 181 5.0 7.0 0.00 0.00 0.00 63 1008.6
20260509081053 60 154 4.0 7.0 0.00 0.00 0.00 65 1008.8
20260509080555 60 169 5.0 7.0 0.00 0.00 0.00 66 1008.9
20260509080059 60 169 6.0 7.0 0.00 0.00 0.00 65 1008.9
20260509075555 60 174 5.0 6.0 0.00 0.00 0.00 66 1008.9
20260509075052 60 168 4.0 6.0 0.00 0.00 0.00 66 1008.8
20260509074556 60 189 4.0 7.0 0.00 0.00 0.00 67 1008.8
20260509074052 60 196 5.0 8.0 0.00 0.00 0.00 68 1008.8
20260509073556 60 169 6.0 8.0 0.00 0.00 0.00 68 1009.1
20260509073053 60 159 3.0 7.0 0.00 0.00 0.00 70 1009.2
20260509072555 60 174 0.0 7.0 0.00 0.00 0.00 71 1009.3
20260509072056 60 0 0.0 0.0 0.00 0.00 0.00 71 1009.3
20260509071559 60 0 0.0 0.0 0.00 0.00 0.00 72 1009.5
20260509071053 60 0 0.0 0.0 0.00 0.00 0.00 72 1009.5
20260509070553 60 0 0.0 0.0 0.00 0.00 0.00 73 1009.5
20260509070059 60 0 0.0 0.0 0.00 0.00 0.00 73 1009.7
20260509065555 60 0 0.0 0.0 0.00 0.00 0.00 72 1009.9
20260509065056 60 0 0.0 0.0 0.00 0.00 0.00 71 1010.0
20260509064555 60 0 0.0 0.0 0.00 0.00 0.00 71 1009.9
20260509064055 60 0 0.0 0.0 0.00 0.00 0.00 72 1009.9
20260509063556 60 0 0.0 0.0 0.00 0.00 0.00 74 1009.8
20260509063056 60 0 0.0 0.0 0.00 0.00 0.00 74 1010.0
20260509062557 60 0 0.0 6.0 0.00 0.00 0.00 74 1010.1
20260509062056 59 0 0.0 6.0 0.00 0.00 0.00 74 1010.4
20260509061613 59 178 2.0 6.0 0.00 0.00 0.00 78 1010.7
20260509061056 60 0 0.0 0.0 0.00 0.00 0.00 80 1010.7
20260509060553 60 0 0.0 0.0 0.00 0.00 0.00 81 1010.8
20260509060118 60 0 0.0 0.0 0.00 0.00 0.00 81 1010.7
20260509055556 60 0 0.0 0.0 0.00 0.00 0.00 81 1010.6
20260509055056 60 0 0.0 0.0 0.00 0.00 0.00 82 1010.7
20260509054602 61 0 0.0 0.0 0.00 0.00 0.00 82 1010.7
20260509054056 61 0 0.0 0.0 0.00 0.00 0.00 82 1010.6
20260509053557 61 0 0.0 0.0 0.00 0.00 0.00 82 1010.8
20260509053056 61 0 0.0 0.0 0.00 0.00 0.00 83 1010.9
20260509052557 61 0 0.0 0.0 0.00 0.00 0.00 83 1010.9
20260509052057 61 0 0.0 0.0 0.00 0.00 0.00 82 1011.0
20260509051559 61 0 0.0 0.0 0.00 0.00 0.00 83 1011.0
20260509051056 61 0 0.0 0.0 0.00 0.00 0.00 82 1011.0
20260509050556 61 0 0.0 0.0 0.00 0.00 0.00 82 1011.3
20260509050127 61 0 0.0 0.0 0.00 0.00 0.00 82 1011.4
20260509045557 61 0 0.0 0.0 0.00 0.00 0.00 82 1011.4
20260509045057 61 0 0.0 0.0 0.00 0.00 0.00 82 1011.2
20260509044601 62 0 0.0 0.0 0.00 0.00 0.00 83 1011.1
20260509044056 62 0 0.0 0.0 0.00 0.00 0.00 83 1010.9
20260509043556 62 0 0.0 0.0 0.00 0.00 0.00 83 1010.6
20260509043058 62 0 0.0 0.0 0.00 0.00 0.00 83 1010.7
20260509042556 62 0 0.0 0.0 0.00 0.00 0.00 83 1010.8
20260509042056 62 0 0.0 0.0 0.00 0.00 0.00 83 1010.8
20260509041555 62 0 0.0 0.0 0.00 0.00 0.00 82 1011.1
20260509041056 62 0 0.0 0.0 0.00 0.00 0.00 82 1011.2
20260509040555 62 0 0.0 0.0 0.00 0.00 0.00 82 1011.5
20260509040057 62 0 0.0 0.0 0.00 0.00 0.00 82 1011.4
20260509035558 62 0 0.0 0.0 0.00 0.00 0.00 82 1011.4
20260509035052 63 0 0.0 0.0 0.00 0.00 0.00 82 1011.3
20260509034553 63 0 0.0 0.0 0.00 0.00 0.00 82 1011.2
20260509034053 63 0 0.0 0.0 0.00 0.00 0.00 81 1010.8
20260509033556 63 0 0.0 0.0 0.00 0.00 0.00 81 1010.6
20260509033056 63 0 0.0 0.0 0.00 0.00 0.00 82 1010.6
20260509032556 62 0 0.0 0.0 0.00 0.00 0.00 82 1010.6
20260509032058 63 0 0.0 0.0 0.00 0.00 0.00 82 1010.5
20260509031557 63 0 0.0 0.0 0.00 0.00 0.00 82 1010.5
20260509031056 63 0 0.0 0.0 0.00 0.00 0.00 81 1010.4
20260509030556 63 0 0.0 0.0 0.00 0.00 0.00 81 1010.6
20260509030054 63 0 0.0 0.0 0.00 0.00 0.00 81 1010.6
20260509025553 63 0 0.0 0.0 0.00 0.00 0.00 81 1010.8
20260509025055 64 0 0.0 0.0 0.00 0.00 0.00 80 1010.8
20260509024553 64 0 0.0 0.0 0.00 0.00 0.00 80 1010.8
20260509024052 63 0 0.0 0.0 0.00 0.00 0.00 80 1010.6
20260509023559 64 0 0.0 0.0 0.00 0.00 0.00 80 1010.3
20260509023102 64 0 0.0 0.0 0.00 0.00 0.00 79 1010.3
20260509022556 64 0 0.0 0.0 0.00 0.00 0.00 78 1010.3
20260509022056 64 0 0.0 0.0 0.00 0.00 0.00 78 1010.3
20260509021556 65 0 0.0 0.0 0.00 0.00 0.00 77 1010.4
20260509021057 65 0 0.0 0.0 0.00 0.00 0.00 77 1010.4
20260509020555 65 0 0.0 0.0 0.00 0.00 0.00 77 1010.5
20260509020058 65 0 0.0 0.0 0.00 0.00 0.00 76 1010.3
20260509015556 66 0 0.0 0.0 0.00 0.00 0.00 75 1010.4
20260509015056 66 0 0.0 0.0 0.00 0.00 0.00 75 1010.4
20260509014554 66 0 0.0 6.0 0.00 0.00 0.00 75 1010.3
20260509014056 66 0 0.0 7.0 0.00 0.00 0.00 74 1010.2
20260509013552 66 0 1.0 7.0 0.00 0.00 0.00 74 1010.2
20260509013100 67 0 0.0 6.0 0.00 0.00 0.00 73 1010.3
20260509012556 67 0 0.0 8.0 0.00 0.00 0.00 73 1010.3
20260509012057 67 0 0.0 8.0 0.00 0.00 0.00 72 1010.2
20260509011556 67 0 0.0 8.0 0.00 0.00 0.00 71 1010.2
20260509011056 68 0 0.0 10.0 0.00 0.00 0.00 71 1010.2
20260509010556 68 171 3.0 10.0 0.00 0.00 0.00 70 1010.3
20260509010057 68 0 0.0 12.0 0.00 0.00 0.00 70 1010.1
20260509005556 68 148 4.0 12.0 0.00 0.00 0.00 69 1010.0
20260509005055 68 150 7.0 12.0 0.00 0.00 0.00 69 1010.0
20260509004555 69 0 3.0 11.0 0.00 0.00 0.00 69 1010.2
20260509004055 69 153 3.0 13.0 0.00 0.00 0.00 69 1010.1
20260509003553 69 166 5.0 13.0 0.00 0.00 0.00 68 1010.1
20260509003103 69 162 4.0 12.0 0.00 0.00 0.00 68 1010.0
20260509002552 70 147 6.0 12.0 0.00 0.00 0.00 67 1010.0
20260509002058 70 144 6.0 12.0 0.00 0.00 0.00 67 1010.1
20260509001553 70 150 6.0 14.0 0.00 0.00 0.00 66 1010.1
20260509001052 71 167 5.0 14.0 0.00 0.00 0.00 65 1010.0
20260509000559 70 143 4.0 11.0 0.00 0.00 0.00 65 1010.1
20260509000104 71 163 6.0 12.0 0.00 0.00 0.00 64 1010.1
20260508235555 71 162 4.0 13.0 0.00 0.00 0.00 63 1010.3
20260508235055 71 154 3.0 14.0 0.00 0.00 0.00 63 1010.2
20260508234558 72 136 5.0 14.0 0.00 0.00 0.00 63 1010.3
20260508234053 72 152 9.0 14.0 0.00 0.00 0.00 63 1010.4
20260508233556 72 155 7.0 17.0 0.00 0.00 0.00 62 1010.3
20260508233054 72 167 8.0 17.0 0.00 0.00 0.00 62 1010.2
20260508232555 72 174 5.0 15.0 0.00 0.00 0.00 62 1010.4
20260508232055 73 189 7.0 15.0 0.00 0.00 0.00 61 1010.3
20260508231558 73 166 10.0 17.0 0.00 0.00 0.00 60 1010.2
20260508231056 73 162 8.0 17.0 0.00 0.00 0.00 61 1010.4
20260508230557 72 163 10.0 15.0 0.00 0.00 0.00 60 1010.3
20260508230105 73 160 7.0 15.0 0.00 0.00 0.00 59 1010.4
20260508225556 73 245 7.0 17.0 0.00 0.00 0.00 59 1010.4
20260508225052 73 167 11.0 17.0 0.00 0.00 0.00 58 1010.5
20260508224557 73 158 5.0 15.0 0.00 0.00 0.00 57 1010.4
20260508224052 73 155 9.0 15.0 0.00 0.00 0.00 57 1010.4
20260508223552 73 113 9.0 15.0 0.00 0.00 0.00 56 1010.4
20260508223055 73 156 8.0 16.0 0.00 0.00 0.00 55 1010.3